| time (UTC) | temp F | wind direction | speed knots | gust knots | rain 1hr in | rain 24hr in | rain mn in | humidity % | barometer mb |
| 20260903213502 | 64 | 1.7 | 0.0 | 0.00 | 0.00 | 0.00 | 73 | 1017.0 | |
| 20260903210502 | 70 | 240 | 4.3 | 0.0 | 0.00 | 0.00 | 0.00 | ||
| 20260903203503 | 70 | 240 | 5.2 | 0.0 | 0.00 | 0.00 | 0.00 | 57 | 1017.0 |
| 20260903200502 | 70 | 220 | 2.6 | 0.0 | 0.00 | 0.00 | 0.00 | 57 | 1017.0 |
| 20260903193501 | 70 | 220 | 4.3 | 0.0 | 0.00 | 0.00 | 0.00 | 57 | 1017.0 |
| 20260903190502 | 68 | 230 | 4.3 | 0.0 | 0.00 | 0.00 | 0.00 | 60 | 1017.0 |
| 20260903183502 | 68 | 1.7 | 0.0 | 0.00 | 0.00 | 0.00 | 60 | 1017.0 | |
| 20260903180502 | 72 | 330 | 4.3 | 0.0 | 0.00 | 0.00 | 0.00 | 50 | 1017.0 |
| 20260903173502 | 73 | 330 | 4.3 | 0.0 | 0.00 | 0.00 | 0.00 | 47 | 1017.0 |
| 20260903170502 | 75 | 360 | 2.6 | 0.0 | 0.00 | 0.00 | 0.00 | 41 | 1017.0 |
| 20260903163502 | 75 | 360 | 5.2 | 0.0 | 0.00 | 0.00 | 0.00 | 44 | 1017.0 |
| 20260903160502 | 77 | 360 | 2.6 | 0.0 | 0.00 | 0.00 | 0.00 | 42 | 1016.0 |
| 20260903153502 | 77 | 10 | 2.6 | 0.0 | 0.00 | 0.00 | 0.00 | 42 | 1016.0 |
| 20260903150502 | 79 | 350 | 4.3 | 0.0 | 0.00 | 0.00 | 0.00 | 39 | 1016.0 |
| 20260903143502 | 79 | 340 | 2.6 | 0.0 | 0.00 | 0.00 | 0.00 | 37 | 1017.0 |
| 20260903140502 | 79 | 360 | 5.2 | 0.0 | 0.00 | 0.00 | 0.00 | 39 | 1017.0 |
| 20260903133501 | 79 | 320 | 5.2 | 0.0 | 0.00 | 0.00 | 0.00 | 37 | 1017.0 |
| 20260903130502 | 79 | 5.2 | 0.0 | 0.00 | 0.00 | 0.00 | 39 | 1017.0 | |
| 20260903123502 | 79 | 350 | 6.1 | 0.0 | 0.00 | 0.00 | 0.00 | 39 | 1017.0 |
| 20260903120502 | 79 | 330 | 7.0 | 0.0 | 0.00 | 0.00 | 0.00 | 39 | 1018.0 |
| 20260903113502 | 77 | 320 | 7.0 | 0.0 | 0.00 | 0.00 | 0.00 | 42 | 1018.0 |
| 20260903110502 | 77 | 5.2 | 0.0 | 0.00 | 0.00 | 0.00 | 44 | 1018.0 | |
| 20260903103503 | 75 | 320 | 6.1 | 0.0 | 0.00 | 0.00 | 0.00 | 47 | 1019.0 |
| 20260903100503 | 77 | 290 | 6.1 | 0.0 | 0.00 | 0.00 | 0.00 | 44 | 1019.0 |
| 20260903093502 | 75 | 330 | 7.0 | 0.0 | 0.00 | 0.00 | 0.00 | 47 | 1019.0 |
| 20260903090502 | 75 | 320 | 6.1 | 0.0 | 0.00 | 0.00 | 0.00 | 50 | 1019.0 |
| 20260903083502 | 73 | 1.7 | 0.0 | 0.00 | 0.00 | 0.00 | 53 | 1020.0 | |
| 20260903080503 | 73 | 360 | 4.3 | 0.0 | 0.00 | 0.00 | 0.00 | 50 | 1020.0 |
| 20260903073502 | 73 | 5.2 | 0.0 | 0.00 | 0.00 | 0.00 | 53 | 1020.0 | |
| 20260903070502 | 70 | 310 | 6.1 | 0.0 | 0.00 | 0.00 | 0.00 | 64 | 1020.0 |
| 20260903063503 | 68 | 290 | 4.3 | 0.0 | 0.00 | 0.00 | 0.00 | 69 | 1019.0 |
| 20260903060502 | 64 | 250 | 2.6 | 0.0 | 0.00 | 0.00 | 0.00 | 78 | 1020.0 |
| 20260903053502 | 63 | 1.7 | 0.0 | 0.00 | 0.00 | 0.00 | 83 | 1020.0 | |
| 20260903050503 | 63 | 270 | 2.6 | 0.0 | 0.00 | 0.00 | 0.00 | 83 | 1020.0 |
| 20260903043502 | 64 | 200 | 2.6 | 0.0 | 0.00 | 0.00 | 0.00 | 73 | 1019.0 |
| 20260903040502 | 61 | 310 | 7.0 | 0.0 | 0.00 | 0.00 | 0.00 | 83 | 1019.0 |
| 20260903033502 | 63 | 320 | 7.8 | 0.0 | 0.00 | 0.00 | 0.00 | 77 | 1019.0 |
| 20260903030502 | 63 | 250 | 4.3 | 0.0 | 0.00 | 0.00 | 0.00 | 77 | 1019.0 |
| 20260903023502 | 64 | 340 | 7.0 | 0.0 | 0.00 | 0.00 | 0.00 | 73 | 1019.0 |
| 20260903020501 | 64 | 1.7 | 0.0 | 0.00 | 0.00 | 0.00 | 73 | 1019.0 | |
| 20260903013503 | 66 | 20 | 7.0 | 0.0 | 0.00 | 0.00 | 0.00 | 64 | 1019.0 |
| 20260903010502 | 66 | 20 | 7.0 | 0.0 | 0.00 | 0.00 | 0.00 | 64 | 1019.0 |
| 20260903003502 | 66 | 340 | 8.7 | 0.0 | 0.00 | 0.00 | 0.00 | 68 | 1019.0 |
| 20260903000502 | 64 | 270 | 2.6 | 0.0 | 0.00 | 0.00 | 0.00 | 78 | 1019.0 |
| 20260902233501 | 64 | 260 | 4.3 | 0.0 | 0.00 | 0.00 | 0.00 | 78 | 1019.0 |
| 20260902230501 | 64 | 310 | 5.2 | 0.0 | 0.00 | 0.00 | 0.00 | 73 | 1019.0 |
| 20260902223502 | 66 | 290 | 2.6 | 0.0 | 0.00 | 0.00 | 0.00 | 73 | 1019.0 |
| 20260902220502 | 66 | 300 | 2.6 | 0.0 | 0.00 | 0.00 | 0.00 | 73 | 1019.0 |